TimeCDT,TemperatureF,Dew PointF,Humidity,Sea Level PressureIn,VisibilityMPH,Wind Direction,Wind SpeedMPH,Gust SpeedMPH,PrecipitationIn,Events,Conditions,WindDirDegrees,DateUTC
12:52 AM,37.9,32.0,79,30.13,10.0,WNW,8.1,-,N/A,,Overcast,300,2013-10-23 05:52:00
1:52 AM,37.0,32.0,82,30.13,10.0,Calm,Calm,-,N/A,,Partly Cloudy,0,2013-10-23 06:52:00
2:52 AM,35.1,30.9,85,30.14,10.0,Calm,Calm,-,N/A,,Clear,0,2013-10-23 07:52:00
3:52 AM,34.0,32.0,92,30.14,9.0,Calm,Calm,-,N/A,,Partly Cloudy,0,2013-10-23 08:52:00
4:52 AM,34.0,30.9,89,30.14,10.0,Calm,Calm,-,N/A,,Partly Cloudy,0,2013-10-23 09:52:00
5:52 AM,34.0,30.9,89,30.14,10.0,Calm,Calm,-,N/A,,Mostly Cloudy,0,2013-10-23 10:52:00
6:52 AM,35.1,32.0,89,30.14,10.0,Calm,Calm,-,N/A,,Mostly Cloudy,0,2013-10-23 11:52:00
7:52 AM,36.0,32.0,86,30.16,10.0,West,3.5,-,N/A,,Overcast,260,2013-10-23 12:52:00
8:52 AM,37.9,33.1,83,30.15,10.0,Calm,Calm,-,N/A,,Overcast,0,2013-10-23 13:52:00
9:52 AM,39.0,35.1,86,30.15,5.0,South,6.9,-,0.00,Rain,Light Rain,180,2013-10-23 14:52:00
10:13 AM,39.2,35.6,87,30.13,7.0,SSW,5.8,-,0.01,Rain,Light Rain,200,2013-10-23 15:13:00
10:52 AM,39.0,36.0,89,30.13,7.0,SE,5.8,-,0.04,Rain,Light Rain,130,2013-10-23 15:52:00
11:19 AM,39.2,35.6,87,30.10,10.0,SSE,8.1,-,0.00,,Overcast,160,2013-10-23 16:19:00
11:52 AM,39.9,36.0,86,30.11,10.0,South,8.1,-,0.00,,Overcast,170,2013-10-23 16:52:00
12:52 PM,41.0,36.0,82,30.10,10.0,SSE,5.8,-,N/A,,Overcast,150,2013-10-23 17:52:00
1:52 PM,42.1,37.0,82,30.09,10.0,South,5.8,-,N/A,,Overcast,180,2013-10-23 18:52:00
2:52 PM,43.0,36.0,76,30.09,10.0,East,3.5,-,N/A,,Overcast,90,2013-10-23 19:52:00
3:52 PM,44.1,37.9,79,30.10,10.0,ENE,4.6,-,N/A,,Overcast,60,2013-10-23 20:52:00
4:52 PM,43.0,37.9,82,30.12,10.0,NNE,6.9,-,N/A,,Overcast,20,2013-10-23 21:52:00
5:34 PM,42.8,37.4,81,30.11,10.0,North,4.6,-,N/A,,Overcast,360,2013-10-23 22:34:00
5:52 PM,43.0,37.9,82,30.14,10.0,North,5.8,-,N/A,,Overcast,350,2013-10-23 22:52:00
6:52 PM,43.0,37.9,82,30.16,10.0,NNW,5.8,-,N/A,,Overcast,340,2013-10-23 23:52:00
7:29 PM,42.8,37.4,81,30.15,10.0,NNW,6.9,-,N/A,,Overcast,340,2013-10-24 00:29:00
7:48 PM,42.8,37.4,81,30.16,10.0,NNW,6.9,-,N/A,,Overcast,340,2013-10-24 00:48:00
7:52 PM,43.0,37.9,82,30.19,10.0,NNW,6.9,-,N/A,,Overcast,340,2013-10-24 00:52:00
8:29 PM,42.8,35.6,76,30.17,10.0,NNW,10.4,-,N/A,,Overcast,340,2013-10-24 01:29:00
8:52 PM,41.0,35.1,79,30.20,10.0,NNW,8.1,-,N/A,,Overcast,330,2013-10-24 01:52:00
9:52 PM,39.0,35.1,86,30.21,10.0,NW,5.8,-,N/A,,Overcast,320,2013-10-24 02:52:00
10:52 PM,39.9,35.1,83,30.22,10.0,NW,6.9,-,N/A,,Overcast,310,2013-10-24 03:52:00
11:52 PM,39.9,34.0,79,30.22,10.0,NNW,8.1,-,N/A,,Overcast,340,2013-10-24 04:52:00